Wind_Speed
4 4 4 4 4 5 6 5 5 4 4 4 4 5 5 5 4 5 5 5 5 5 5 5 5 5 5 5 4 4 4 3 4 4 4 4 5 5 6 5 5 5 6 6 6 6 6 6 7
4 4 4 4 5 5 5 5 5 5 4 4 5 5 5 5 5 5 5 5 5 5 6 6 6 6 5 5 5 5 5 4 4 4 4 5 5 5 6 6 6 6 6 7 7 7 7 7 7
5 5 5 4 5 5 4 5 5 5 4 4 5 5 5 5 5 5 5 5 5 6 5 6 7 7 6 6 6 6 5 5 5 5 5 5 6 6 6 7 7 6 7 7 7 8 7 8 8
5 5 5 5 5 5 4 4 4 4 4 4 4 5 5 5 5 5 5 6 6 6 5 6 6 6 7 6 6 6 6 6 6 5 6 5 6 6 6 7 7 7 7 8 8 9 8 9 9
5 5 5 6 7 6 5 5 5 5 4 4 4 5 5 5 5 5 5 5 5 6 5 6 6 7 7 7 6 6 6 6 6 6 6 6 5 5 6 7 8 8 8 8 9 9 9 9 10
6 5 5 6 7 7 6 6 6 5 5 5 5 5 5 5 6 6 6 6 6 6 6 6 7 7 7 7 7 7 7 7 6 6 7 6 6 6 7 7 7 8 8 9 9 10 10 10 10
6 6 6 6 7 7 7 6 6 6 6 5 5 5 5 6 6 6 7 7 7 7 7 7 8 8 7 7 8 8 8 8 8 7 7 7 7 7 8 8 8 8 9 9 10 10 11 11 11
7 7 7 7 7 7 7 7 7 7 7 6 6 6 6 6 6 7 7 7 7 7 8 9 8 8 8 8 8 8 8 8 8 8 8 7 7 8 8 8 8 9 9 9 10 10 10 11 12
7 7 7 7 8 8 8 8 8 8 8 8 7 7 7 7 7 7 7 7 7 7 8 8 8 8 8 8 9 9 8 8 8 8 8 8 8 8 9 9 9 10 10 10 10 10 11 11 13
7 7 7 7 8 8 8 8 8 9 9 9 9 9 8 8 7 7 8 8 8 8 8 8 9 9 9 9 9 9 8 8 8 8 9 9 9 9 9 9 9 10 10 11 11 11 11 12 13
7 7 7 7 8 8 8 8 9 9 9 9 9 9 9 9 9 8 8 9 9 9 9 8 8 9 9 9 9 9 9 9 9 9 9 9 9 10 10 10 10 10 11 11 11 11 12 12 12
7 7 8 8 8 8 8 9 9 9 9 10 10 10 10 10 10 10 9 9 9 9 9 9 9 9 9 9 9 9 9 9 10 10 10 10 10 10 10 11 11 11 11 11 11 11 12 12 13
8 8 8 8 8 8 8 8 8 9 9 9 9 10 10 10 10 10 10 10 10 10 10 10 10 10 10 10 9 9 9 10 10 10 10 10 10 10 11 11 11 12 12 12 11 11 11 12 12
8 8 8 8 8 8 8 8 9 8 8 9 9 9 10 11 11 11 10 11 11 11 11 10 10 11 11 10 10 10 10 10 10 10 10 11 11 11 11 10 11 12 12 11 11 11 11 12 12
9 9 8 9 9 9 9 8 9 8 8 9 9 9 10 10 11 11 11 10 11 10 11 11 11 11 11 11 11 11 10 10 10 10 10 10 10 10 10 11 11 11 11 11 11 11 11 11 12
8 9 9 9 9 9 9 9 9 9 9 8 9 10 10 11 11 12 12 11 11 11 11 12 12 12 12 12 11 12 12 11 11 10 10 10 10 10 10 10 11 11 11 10 10 11 11 12 12
9 9 10 10 10 10 10 10 10 10 10 9 9 9 10 10 11 11 12 12 12 12 12 12 12 12 12 12 13 13 12 11 11 10 10 10 10 11 11 11 11 11 11 11 12 12 12 12 12
9 9 10 11 10 11 11 10 10 10 10 10 10 10 10 10 10 11 11 12 12 12 12 13 12 12 12 12 12 12 12 12 12 11 11 11 11 11 11 11 11 10 10 11 12 12 13 13 12
10 10 10 11 11 11 11 11 11 11 11 11 11 11 11 11 11 12 12 12 12 12 12 12 13 13 13 13 13 12 12 12 12 12 12 13 13 12 11 11 11 11 11 12 12 12 12 13 13
11 11 11 11 11 11 11 11 11 11 11 12 12 11 12 12 12 12 13 14 14 13 13 13 13 13 13 13 13 13 12 13 13 13 13 13 13 12 12 12 12 12 13 13 13 12 13 13 13
12 12 12 12 13 13 13 12 12 12 13 13 13 13 13 13 13 13 13 13 13 14 14 14 14 15 15 14 14 14 14 14 14 14 14 14 14 13 12 12 13 13 14 14 14 14 14 14 14
13 12 13 13 14 14 13 14 13 14 14 14 14 14 14 14 14 14 14 15 14 14 15 15 15 16 16 15 15 15 15 15 14 15 15 15 14 14 14 14 14 15 15 15 15 15 15 15 15
14 14 14 14 14 15 14 15 14 14 14 14 14 14 14 15 15 15 15 15 15 15 15 15 16 16 17 16 16 16 15 15 15 15 15 15 15 15 15 15 16 16 16 16 16 16 16 16 16
14 14 15 15 15 16 15 15 14 14 14 13 14 14 14 15 15 15 16 16 15 15 15 15 16 17 17 17 17 17 17 17 16 16 16 16 16 17 17 17 17 17 17 17 17 17 17 18 18
15 15 15 16 16 16 15 14 13 13 13 13 14 14 14 14 15 15 15 15 15 16 16 16 16 17 17 17 17 18 18 18 18 18 18 18 18 19 18 18 18 19 19 19 19 19 19 19 19
15 15 15 16 15 15 15 14 14 13 12 13 13 14 14 15 15 15 15 15 15 16 16 17 17 17 18 18 17 18 19 19 19 19 19 19 20 20 20 20 20 20 20 20 21 21 21 20 20
16 16 16 16 16 15 15 14 14 13 13 13 14 14 15 15 15 16 16 16 16 17 17 17 18 18 18 19 19 19 20 20 20 20 20 20 21 21 21 21 21 21 21 21 22 21 21 21 21
17 16 16 16 16 16 16 15 14 13 13 14 14 15 15 15 16 16 16 17 17 17 17 18 18 19 20 20 20 20 21 21 21 21 22 22 22 22 22 23 23 22 23 23 22 22 22 22 22
17 16 16 17 18 18 18 17 15 15 14 15 15 15 16 16 17 17 17 17 17 18 18 18 19 19 20 20 21 22 22 22 22 23 23 23 23 22 23 23 24 23 23 22 22 22 22 23 23
18 17 17 17 18 18 18 18 17 16 16 16 16 16 16 17 17 17 18 18 18 18 19 19 19 19 20 20 21 22 22 22 23 23 24 24 24 23 23 24 24 24 24 24 24 23 23 23 24
Wind_Direction
175 171 167 165 179 188 197 201 205 207 206 206 209 213 211 214 222 226 228 230 233 232 229 224 222 222 221 230 235 238 243 242 233 231 238 231 228 232 234 233 240 246 244 243 239 239 239 241 244
186 177 175 175 180 194 204 208 209 210 210 212 218 220 219 220 219 221 225 228 231 230 228 226 226 229 238 236 240 246 244 247 247 243 241 236 233 237 237 238 248 248 245 244 243 243 242 244 246
194 185 183 186 186 197 204 207 210 211 218 222 225 227 229 227 226 230 234 232 230 228 229 228 229 235 241 240 244 248 248 250 252 251 248 252 244 245 244 245 252 249 245 246 248 248 246 245 247
198 194 196 197 204 209 215 218 219 218 218 225 231 235 237 233 234 239 239 236 230 225 226 230 232 238 240 244 246 250 250 254 253 254 256 256 250 250 247 250 253 246 244 244 246 248 249 248 249
207 207 212 214 218 221 223 222 222 227 223 233 238 243 244 241 242 241 239 237 233 231 235 236 236 239 241 243 244 246 249 253 253 256 261 259 255 255 256 258 256 253 249 250 249 249 250 252 253
217 219 223 225 225 228 231 231 232 234 236 240 245 246 247 246 245 244 244 242 240 239 240 241 241 244 247 249 249 250 251 252 251 257 262 265 262 263 265 265 262 260 256 255 254 253 252 254 252
221 223 228 231 231 231 230 231 232 235 236 242 248 250 247 248 247 244 245 246 244 241 241 245 243 245 248 251 255 255 257 260 260 258 259 263 266 269 272 270 264 262 260 259 256 258 258 258 258
226 229 233 236 234 230 232 231 235 239 242 247 247 248 249 250 246 244 242 243 244 243 244 244 241 244 247 251 255 259 260 259 260 262 265 266 267 269 270 270 268 265 265 265 261 261 262 260 263
227 228 234 236 235 233 234 235 238 244 247 249 249 249 251 251 247 245 240 240 244 246 246 246 241 243 246 249 251 258 264 261 262 263 262 264 269 271 270 270 272 269 266 265 264 265 265 265 263
228 230 235 238 240 238 237 240 243 249 253 254 252 249 251 251 243 241 243 243 245 247 248 247 243 245 248 249 252 256 260 259 261 265 265 265 271 274 273 273 273 272 269 268 267 269 268 265 263
234 237 238 238 240 240 242 244 248 251 253 254 253 251 248 249 242 239 243 243 243 245 245 247 247 248 251 253 255 257 259 259 263 268 266 268 272 275 276 276 276 276 273 271 270 270 270 265 262
234 236 241 243 244 246 247 250 250 254 257 257 254 251 248 247 239 238 240 242 243 245 244 246 249 250 252 255 259 260 262 264 267 269 269 271 274 276 276 277 278 278 278 276 276 279 269 263 261
229 233 240 245 248 250 251 252 254 256 256 256 252 249 248 246 246 243 245 248 246 244 245 245 247 250 253 258 261 264 266 268 267 268 269 270 273 275 278 279 278 278 278 277 276 275 273 265 260
232 235 240 244 250 250 252 255 256 255 254 256 252 248 248 246 246 249 251 249 247 247 246 247 246 250 254 258 262 264 268 267 265 269 270 271 273 275 276 278 279 279 279 277 276 273 272 270 268
238 240 243 246 249 254 256 256 256 256 255 255 253 251 248 250 249 251 252 249 249 248 246 247 247 251 255 259 262 261 263 266 268 270 271 273 276 278 278 278 280 280 279 278 275 271 269 268 268
242 246 249 251 253 254 254 255 255 256 258 259 259 256 254 255 253 251 251 251 252 252 248 244 246 251 256 259 260 261 265 266 268 271 273 276 279 280 280 279 280 280 278 275 275 275 274 273 272
243 250 253 255 254 254 255 257 254 255 258 259 262 263 265 264 258 255 255 257 257 254 250 246 249 254 258 261 262 263 262 263 264 269 273 276 279 282 283 281 279 278 277 273 273 274 275 275 274
245 250 254 255 253 253 254 256 257 259 258 257 259 261 264 265 262 260 260 260 261 257 254 253 253 256 259 261 264 263 264 264 265 268 272 276 279 282 284 283 280 281 280 278 277 275 273 273 273
247 250 253 255 253 253 256 257 260 260 259 259 259 261 263 262 260 261 263 264 264 261 259 257 255 256 259 262 264 264 264 266 265 267 272 275 278 280 281 280 278 279 281 281 281 279 276 275 275
248 251 253 256 256 256 259 259 262 262 259 259 260 261 261 261 261 260 262 264 264 262 262 261 258 258 260 262 262 265 266 266 267 268 270 274 277 277 276 275 277 279 281 281 280 278 278 278 276
249 252 255 259 260 261 260 258 260 264 265 263 262 262 262 263 263 263 264 266 264 262 262 262 261 259 260 261 264 264 265 267 268 271 274 273 274 274 274 276 278 280 281 279 277 278 281 279 278
249 251 254 258 260 261 261 262 261 264 266 266 263 263 264 265 267 266 266 267 266 265 264 262 261 259 259 262 265 266 267 268 269 271 273 272 273 274 276 278 279 278 279 279 280 280 278 278 279
250 252 255 257 259 260 261 264 263 263 264 266 265 264 265 266 267 267 267 266 265 266 264 263 262 261 262 263 265 267 267 268 272 275 276 276 275 275 276 277 279 279 281 282 280 279 278 280 280
251 254 257 258 260 260 261 264 264 263 263 264 264 265 267 267 268 269 267 266 267 268 267 266 265 265 266 265 265 267 268 271 271 272 273 272 272 273 274 274 276 279 281 282 281 278 279 279 280
250 252 256 258 260 262 263 261 264 265 264 263 263 265 267 267 268 268 267 266 267 269 268 267 267 268 269 267 265 266 268 269 270 271 271 272 271 272 272 273 276 278 279 279 280 279 280 280 279
250 250 253 256 258 261 263 264 266 266 265 265 266 265 267 267 267 266 266 266 266 267 268 269 270 271 269 269 268 268 268 270 272 273 273 274 273 272 272 273 276 277 277 279 280 280 279 278 276
248 248 250 253 256 258 260 264 267 266 266 265 267 268 268 268 268 267 266 267 266 267 268 270 271 270 269 269 269 269 271 271 272 274 275 276 275 274 274 275 277 277 279 281 280 280 279 276 275
248 249 251 252 256 259 259 261 264 263 265 265 266 268 269 269 270 270 268 267 267 268 269 270 270 269 269 269 269 269 270 271 272 274 276 279 278 276 276 276 278 279 280 281 280 280 279 278 277
248 248 251 253 256 261 261 262 263 262 264 266 267 269 271 271 270 270 270 269 267 267 268 269 272 273 272 272 271 271 270 271 273 274 276 279 279 278 278 279 281 280 280 280 280 280 280 280 279
250 248 250 256 259 262 264 265 263 262 263 266 268 270 271 271 270 270 270 270 268 269 270 272 274 274 273 273 272 272 272 272 273 274 276 278 279 279 279 280 281 281 279 279 280 281 280 279 279
Height
5868 5869 5870 5871 5872 5872 5872 5873 5873 5874 5874 5874 5874 5875 5875 5876 5877 5879 5878 5876 5876 5876 5876 5877 5877 5877 5876 5877 5877 5877 5877 5877 5877 5876 5876 5875 5875 5875 5875 5875 5875 5875 5875 5875 5875 5875 5875 5875 5876
5868 5869 5870 5871 5872 5872 5873 5873 5873 5873 5873 5873 5874 5874 5874 5874 5875 5875 5875 5875 5875 5875 5876 5876 5876 5876 5876 5876 5876 5876 5876 5876 5876 5875 5875 5874 5874 5874 5874 5874 5874 5874 5874 5874 5874 5874 5874 5874 5874
5868 5869 5870 5871 5871 5872 5872 5872 5872 5872 5872 5873 5873 5873 5874 5874 5874 5874 5874 5874 5874 5875 5875 5875 5875 5875 5875 5875 5875 5875 5875 5875 5875 5874 5874 5873 5873 5873 5873 5873 5873 5873 5873 5873 5873 5873 5873 5873 5873
5867 5869 5870 5870 5870 5871 5871 5871 5871 5871 5872 5872 5872 5872 5872 5873 5873 5873 5873 5873 5873 5873 5873 5873 5874 5874 5874 5874 5874 5874 5874 5874 5874 5873 5873 5872 5872 5871 5871 5872 5871 5871 5871 5871 5871 5871 5871 5871 5871
5866 5868 5869 5869 5869 5870 5870 5870 5870 5871 5871 5871 5871 5871 5871 5872 5872 5872 5872 5872 5872 5872 5872 5872 5873 5873 5873 5873 5873 5873 5873 5873 5873 5872 5872 5871 5871 5870 5870 5870 5870 5870 5870 5870 5870 5870 5869 5869 5869
5866 5867 5868 5868 5869 5869 5869 5869 5870 5870 5870 5870 5870 5870 5870 5870 5870 5871 5871 5871 5871 5871 5871 5871 5871 5872 5872 5872 5872 5872 5871 5871 5871 5871 5870 5870 5869 5869 5869 5869 5868 5868 5868 5868 5868 5868 5868 5867 5867
5866 5866 5866 5867 5867 5868 5868 5868 5868 5868 5869 5869 5869 5869 5869 5869 5869 5869 5869 5870 5870 5870 5870 5870 5870 5870 5870 5870 5870 5870 5870 5870 5870 5870 5869 5869 5868 5868 5868 5867 5867 5866 5866 5866 5866 5866 5866 5865 5865
5864 5865 5865 5866 5866 5867 5867 5867 5867 5867 5867 5868 5868 5868 5868 5868 5868 5868 5868 5868 5868 5868 5868 5868 5868 5868 5868 5868 5869 5868 5868 5868 5868 5868 5868 5867 5867 5866 5866 5866 5865 5865 5864 5864 5864 5864 5864 5864 5863
5862 5865 5864 5864 5865 5865 5865 5866 5866 5866 5866 5866 5866 5867 5867 5866 5866 5867 5867 5867 5867 5867 5867 5867 5867 5867 5867 5867 5867 5867 5867 5867 5866 5866 5866 5865 5865 5865 5864 5864 5863 5863 5862 5862 5862 5862 5862 5861 5861
5861 5862 5863 5863 5863 5864 5864 5864 5864 5864 5865 5865 5865 5865 5865 5865 5865 5865 5865 5865 5865 5866 5865 5865 5865 5865 5865 5865 5865 5865 5865 5865 5865 5864 5864 5863 5863 5863 5862 5862 5861 5861 5860 5860 5860 5860 5859 5859 5859
5859 5860 5860 5861 5861 5862 5862 5863 5863 5863 5863 5863 5863 5863 5863 5863 5863 5863 5864 5864 5864 5864 5864 5864 5864 5864 5864 5864 5863 5863 5863 5863 5863 5862 5862 5862 5861 5861 5860 5860 5859 5859 5858 5858 5857 5857 5857 5856 5856
5857 5858 5858 5859 5859 5860 5861 5861 5861 5861 5861 5861 5861 5861 5861 5862 5861 5862 5862 5862 5862 5862 5862 5862 5862 5862 5862 5862 5862 5862 5861 5861 5861 5860 5860 5859 5859 5858 5858 5857 5857 5856 5856 5855 5855 5854 5854 5854 5854
5856 5856 5857 5857 5857 5858 5859 5859 5859 5859 5859 5859 5859 5859 5860 5860 5860 5860 5860 5860 5860 5860 5861 5861 5861 5861 5860 5860 5860 5860 5860 5859 5858 5858 5857 5857 5857 5856 5856 5855 5854 5854 5853 5853 5852 5852 5851 5851 5851
5854 5855 5855 5855 5856 5856 5857 5857 5857 5857 5857 5857 5857 5857 5858 5858 5858 5858 5858 5858 5859 5859 5859 5859 5859 5859 5859 5859 5858 5858 5857 5857 5857 5856 5855 5855 5854 5854 5853 5852 5852 5851 5850 5850 5849 5849 5849 5848 5848
5852 5853 5854 5854 5854 5855 5855 5856 5855 5855 5855 5855 5855 5855 5856 5856 5856 5856 5856 5856 5856 5856 5857 5857 5857 5857 5857 5856 5856 5856 5855 5855 5854 5854 5853 5852 5852 5851 5851 5850 5849 5848 5848 5847 5847 5846 5846 5845 5845
5850 5851 5852 5852 5852 5853 5855 5854 5854 5853 5853 5853 5853 5853 5853 5853 5853 5854 5854 5854 5854 5854 5854 5855 5855 5855 5854 5854 5854 5853 5853 5853 5852 5851 5851 5850 5850 5849 5848 5847 5846 5845 5845 5844 5844 5843 5843 5842 5842
5848 5849 5849 5850 5850 5850 5851 5852 5852 5851 5851 5851 5851 5851 5851 5851 5851 5851 5851 5851 5851 5851 5852 5852 5852 5852 5852 5852 5851 5851 5850 5850 5850 5849 5849 5848 5847 5846 5845 5845 5844 5843 5842 5842 5841 5841 5840 5839 5839
5846 5847 5847 5847 5848 5848 5849 5849 5849 5849 5849 5849 5849 5849 5849 5849 5849 5849 5849 5849 5849 5849 5849 5849 5849 5849 5849 5849 5849 5848 5848 5848 5847 5847 5846 5845 5845 5844 5843 5842 5841 5840 5840 5839 5838 5838 5837 5836 5836
5844 5844 5845 5845 5845 5846 5846 5846 5847 5847 5847 5847 5847 5847 5847 5847 5847 5847 5847 5846 5846 5846 5846 5846 5846 5846 5846 5846 5846 5846 5845 5845 5844 5844 5843 5843 5842 5841 5840 5839 5839 5838 5837 5836 5835 5835 5834 5833 5832
5841 5842 5842 5843 5843 5843 5843 5844 5844 5844 5844 5844 5844 5844 5844 5844 5844 5844 5844 5844 5844 5844 5844 5844 5843 5843 5843 5843 5843 5843 5843 5842 5842 5841 5840 5840 5839 5838 5837 5836 5836 5835 5834 5833 5832 5832 5831 5830 5829
5838 5839 5839 5840 5840 5840 5841 5842 5842 5841 5841 5841 5841 5841 5841 5841 5841 5841 5841 5841 5841 5841 5841 5841 5840 5840 5840 5840 5840 5839 5839 5839 5838 5838 5837 5836 5836 5835 5834 5833 5832 5832 5831 5830 5829 5828 5827 5826 5825
5834 5835 5836 5836 5837 5837 5838 5838 5839 5838 5838 5838 5838 5838 5838 5838 5838 5838 5838 5838 5838 5838 5838 5837 5837 5837 5837 5837 5836 5836 5836 5835 5835 5835 5834 5833 5832 5831 5830 5830 5829 5828 5827 5826 5825 5824 5823 5822 5821
5831 5831 5832 5832 5833 5834 5834 5835 5836 5835 5835 5835 5835 5835 5834 5834 5834 5834 5834 5834 5834 5834 5834 5834 5833 5833 5833 5833 5833 5832 5832 5831 5831 5831 5830 5829 5828 5827 5827 5826 5825 5824 5823 5822 5821 5820 5819 5818 5817
5827 5828 5828 5829 5829 5830 5831 5831 5832 5831 5831 5831 5831 5831 5831 5831 5831 5830 5830 5830 5830 5830 5830 5830 5829 5829 5829 5829 5829 5828 5828 5827 5827 5827 5826 5825 5825 5824 5823 5822 5821 5820 5818 5817 5816 5815 5814 5813 5812
5823 5825 5825 5825 5826 5826 5827 5827 5828 5827 5827 5827 5827 5827 5827 5827 5827 5826 5826 5826 5826 5826 5826 5826 5826 5825 5825 5825 5825 5824 5824 5823 5823 5822 5822 5821 5820 5819 5818 5817 5816 5815 5814 5812 5811 5810 5809 5807 5806
5819 5820 5822 5822 5822 5823 5822 5823 5824 5824 5823 5823 5823 5823 5823 5823 5823 5822 5822 5822 5822 5822 5822 5822 5821 5821 5821 5820 5820 5820 5819 5819 5818 5817 5817 5816 5815 5814 5813 5812 5811 5810 5809 5807 5806 5804 5803 5802 5801
5814 5815 5817 5818 5818 5818 5819 5819 5820 5819 5819 5819 5819 5819 5819 5818 5818 5818 5818 5818 5817 5817 5817 5817 5817 5816 5816 5815 5815 5815 5814 5813 5813 5812 5811 5810 5810 5809 5808 5807 5806 5804 5803 5802 5800 5799 5797 5796 5795
5810 5811 5812 5812 5813 5814 5815 5815 5816 5815 5815 5815 5815 5815 5814 5814 5814 5814 5813 5813 5813 5813 5812 5812 5811 5811 5811 5810 5810 5809 5808 5808 5807 5806 5806 5805 5804 5803 5802 5801 5800 5798 5797 5795 5794 5792 5791 5790 5789
5805 5806 5807 5808 5809 5809 5810 5813 5812 5811 5811 5811 5811 5810 5810 5810 5809 5809 5809 5808 5808 5807 5807 5807 5806 5806 5805 5804 5804 5803 5803 5802 5801 5801 5800 5799 5798 5797 5796 5795 5794 5792 5790 5789 5788 5786 5785 5784 5783
5800 5801 5802 5803 5804 5804 5805 5809 5806 5806 5806 5806 5806 5806 5805 5805 5804 5804 5804 5803 5803 5802 5802 5801 5801 5800 5799 5798 5798 5797 5796 5796 5795 5794 5794 5793 5792 5791 5790 5788 5787 5786 5784 5783 5782 5780 5779 5777 5776